Weather History for North Las Vegas, NV

Change the Weather History Date:

Monday, June 17, 2013

  Actual Average Record
Temperature  
Mean Temperature 88 °F -  
Max Temperature 102 °F 95 °F 114 °F (1961)
Min Temperature 73 °F 69 °F 45 °F (1952)
Cooling Degree Days 22    
Growing Degree Days 38 (Base 50)    
Moisture  
Dew Point 12 °F    
Average Humidity 7    
Maximum Humidity 16    
Minimum Humidity 4    
Precipitation  
Precipitation 0.00 in - - ()
Sea Level Pressure  
Sea Level Pressure 29.82 in    
Wind  
Wind Speed 5 mph (SW)    
Max Wind Speed 14 mph    
Max Gust Speed 23 mph    
Visibility 10 miles    
Events      
Averages and records for this station are not official NWS values.
T = Trace of Precipitation, MM = Missing Value Source: NWS Daily Summary

Daily Weather History Graph

Daily Weather History Graph

Search for Another Location

Airport:

Trip Planner

Search our weather history database for the weather conditions in past years. The results will help you decide how hot, cold, wet, or windy it might be!

Date:

Astronomy

Jun. 17, 2013 Rise Set
Actual Time 5:23 AM PDT 8:00 PM PDT
Civil Twilight 4:52 AM PDT 8:30 PM PDT
Nautical Twilight 4:14 AM PDT 9:08 PM PDT
Astronomical Twilight 3:32 AM PDT 9:50 PM PDT
Moon 1:52 PM PDT (6/17) 12:51 AM PDT (6/17)
Length of Visible Light 15h 38m
Length of Day
14h 37m
First Quarter, 61% of the Moon is Illuminated
Jun 17
First Quarter
Jun 23
Full
Jun 29
Last Quarter
Jul 8
New
Jul 15
First Quarter

Hourly Weather History & Observations

Time (PDT) Temp. Dew Point Humidity Pressure Visibility Wind Dir Wind Speed Gust Speed Precip Events Conditions
12:53 AM 78.1 °F 16.0 °F 10% 29.83 in 10.0 mi North 4.6 mph - N/A   Clear
1:53 AM 78.1 °F 23.0 °F 13% 29.83 in 10.0 mi SW 3.5 mph - N/A   Clear
2:53 AM 73.9 °F 24.1 °F 16% 29.83 in 10.0 mi Calm Calm - N/A   Clear
3:53 AM 73.9 °F 23.0 °F 15% 29.85 in 10.0 mi Calm Calm - N/A   Clear
4:53 AM 73.0 °F 21.9 °F 15% 29.86 in 10.0 mi Calm Calm - N/A   Clear
5:53 AM 73.0 °F 17.1 °F 12% 29.87 in 10.0 mi Calm Calm - N/A   Clear
6:53 AM 75.9 °F 19.9 °F 12% 29.88 in 10.0 mi NW 5.8 mph - N/A   Clear
7:53 AM 82.0 °F 17.1 °F 9% 29.89 in 10.0 mi North 4.6 mph - N/A   Clear
8:53 AM 86.0 °F 15.1 °F 7% 29.90 in 10.0 mi NNW 3.5 mph - N/A   Clear
9:53 AM 89.1 °F 12.0 °F 6% 29.90 in 10.0 mi Calm Calm - N/A   Clear
10:53 AM 90.0 °F 12.0 °F 6% 29.89 in 10.0 mi Calm Calm - N/A   Clear
11:53 AM 93.0 °F 9.0 °F 4% 29.88 in 10.0 mi Calm Calm - N/A   Clear
12:53 PM 96.1 °F 5.0 °F 4% 29.86 in 10.0 mi SSE 8.1 mph - N/A   Clear
1:53 PM 99.0 °F 6.1 °F 4% 29.82 in 10.0 mi SE 9.2 mph - N/A   Clear
2:53 PM 100.9 °F 3.0 °F 4% 29.79 in 10.0 mi South 9.2 mph 23.0 mph N/A   Clear
3:53 PM 100.9 °F 3.0 °F 4% 29.77 in 10.0 mi South 13.8 mph - N/A   Clear
4:53 PM 102.0 °F 3.0 °F 4% 29.75 in 10.0 mi SW 10.4 mph 21.9 mph N/A   Clear
5:53 PM 100.9 °F 8.1 °F 4% 29.73 in 10.0 mi WSW 11.5 mph 21.9 mph N/A   Clear
6:53 PM 99.0 °F 1.9 °F 4% 29.73 in 10.0 mi WSW 13.8 mph - N/A   Clear
7:53 PM 97.0 °F 3.9 °F 4% 29.73 in 10.0 mi WSW 9.2 mph - N/A   Clear
8:53 PM 93.0 °F 7.0 °F 4% 29.73 in 10.0 mi WSW 8.1 mph - N/A   Clear
9:53 PM 91.0 °F 8.1 °F 4% 29.75 in 10.0 mi SW 8.1 mph - N/A   Clear
10:53 PM 88.0 °F 10.0 °F 5% 29.75 in 10.0 mi SSW 9.2 mph - N/A   Clear
11:53 PM 86.0 °F 15.1 °F 7% 29.75 in 10.0 mi SW 8.1 mph - N/A   Clear